| time (UTC) | temp C | wind direction | speed KPH | gust KPH | rain 1hr cm | rain 24hr cm | rain mn cm | humidity % | barometer mb |
| 20260507002505 | 23 | 338 | 3.2 | 9.7 | 0.00 | 0.00 | 0.00 | 57 | 1018.0 |
| 20260507002005 | 23 | 338 | 4.8 | 16.1 | 0.00 | 0.00 | 0.00 | 56 | 1018.0 |
| 20260507001505 | 23 | 45 | 4.8 | 11.3 | 0.00 | 0.00 | 0.00 | 55 | 1018.0 |
| 20260507001005 | 23 | 338 | 3.2 | 8.0 | 0.00 | 0.00 | 0.00 | 55 | 1018.0 |
| 20260507000505 | 23 | 338 | 4.8 | 12.9 | 0.00 | 0.00 | 0.00 | 55 | 1018.0 |
| 20260507000005 | 23 | 338 | 4.8 | 14.5 | 0.00 | 0.00 | 0.00 | 55 | 1018.1 |
| 20260506235505 | 22 | 0 | 6.4 | 12.9 | 0.00 | 0.00 | 0.00 | 55 | 1018.0 |
| 20260506235005 | 23 | 45 | 4.8 | 12.9 | 0.00 | 0.00 | 0.00 | 54 | 1018.1 |
| 20260506234505 | 23 | 338 | 4.8 | 14.5 | 0.00 | 0.00 | 0.00 | 54 | 1018.0 |
| 20260506234025 | 23 | 338 | 4.8 | 12.9 | 0.00 | 0.00 | 0.00 | 55 | 1018.0 |
| 20260506233505 | 23 | 45 | 4.8 | 11.3 | 0.00 | 0.00 | 0.00 | 56 | 1018.1 |
| 20260506233005 | 23 | 338 | 4.8 | 11.3 | 0.00 | 0.00 | 0.00 | 56 | 1018.1 |
| 20260506232525 | 22 | 45 | 4.8 | 14.5 | 0.00 | 0.00 | 0.00 | 56 | 1018.1 |
| 20260506232005 | 23 | 338 | 4.8 | 14.5 | 0.00 | 0.00 | 0.00 | 55 | 1018.3 |
| 20260506231505 | 23 | 338 | 4.8 | 12.9 | 0.00 | 0.00 | 0.00 | 55 | 1018.2 |
| 20260506231005 | 23 | 45 | 4.8 | 12.9 | 0.00 | 0.00 | 0.00 | 54 | 1018.3 |
| 20260506230505 | 23 | 338 | 3.2 | 11.3 | 0.00 | 0.00 | 0.00 | 56 | 1018.2 |
| 20260506230005 | 22 | 45 | 4.8 | 14.5 | 0.00 | 0.00 | 0.00 | 57 | 1018.4 |
| 20260506225504 | 22 | 45 | 4.8 | 11.3 | 0.00 | 0.00 | 0.00 | 57 | 1018.5 |
| 20260506225005 | 22 | 45 | 4.8 | 12.9 | 0.00 | 0.00 | 0.00 | 57 | 1018.5 |
| 20260506224505 | 22 | 45 | 4.8 | 12.9 | 0.00 | 0.00 | 0.00 | 58 | 1018.5 |
| 20260506224005 | 22 | 45 | 4.8 | 12.9 | 0.00 | 0.00 | 0.00 | 58 | 1018.7 |
| 20260506223504 | 22 | 45 | 4.8 | 11.3 | 0.00 | 0.00 | 0.00 | 58 | 1018.6 |
| 20260506223025 | 22 | 45 | 6.4 | 12.9 | 0.00 | 0.00 | 0.00 | 58 | 1018.6 |
| 20260506222525 | 22 | 45 | 6.4 | 16.1 | 0.00 | 0.00 | 0.00 | 57 | 1018.7 |
| 20260506222005 | 23 | 0 | 4.8 | 14.5 | 0.00 | 0.00 | 0.00 | 57 | 1018.8 |
| 20260506221505 | 22 | 45 | 4.8 | 14.5 | 0.00 | 0.00 | 0.00 | 58 | 1018.8 |
| 20260506221004 | 22 | 45 | 4.8 | 12.9 | 0.00 | 0.00 | 0.00 | 58 | 1018.8 |
| 20260506220505 | 22 | 45 | 4.8 | 9.7 | 0.00 | 0.00 | 0.00 | 58 | 1019.0 |
| 20260506220005 | 22 | 45 | 4.8 | 11.3 | 0.00 | 0.00 | 0.00 | 58 | 1018.9 |
| 20260506215504 | 22 | 23 | 4.8 | 12.9 | 0.00 | 0.00 | 0.00 | 57 | 1019.0 |
| 20260506215005 | 22 | 45 | 6.4 | 11.3 | 0.00 | 0.00 | 0.00 | 57 | 1019.1 |
| 20260506214504 | 23 | 45 | 4.8 | 12.9 | 0.00 | 0.00 | 0.00 | 57 | 1019.1 |
| 20260506214024 | 23 | 45 | 3.2 | 8.0 | 0.00 | 0.00 | 0.00 | 56 | 1019.1 |
| 20260506213504 | 22 | 338 | 3.2 | 9.7 | 0.00 | 0.00 | 0.00 | 58 | 1019.1 |
| 20260506213004 | 22 | 45 | 4.8 | 9.7 | 0.00 | 0.00 | 0.00 | 58 | 1019.2 |
| 20260506212504 | 22 | 45 | 4.8 | 12.9 | 0.00 | 0.00 | 0.00 | 58 | 1019.4 |
| 20260506212004 | 22 | 45 | 4.8 | 9.7 | 0.00 | 0.00 | 0.00 | 59 | 1019.3 |
| 20260506211505 | 22 | 45 | 4.8 | 9.7 | 0.00 | 0.00 | 0.00 | 58 | 1019.4 |
| 20260506211004 | 22 | 338 | 3.2 | 9.7 | 0.00 | 0.00 | 0.00 | 59 | 1019.5 |
| 20260506210504 | 22 | 45 | 3.2 | 9.7 | 0.00 | 0.00 | 0.00 | 59 | 1019.5 |
| 20260506210004 | 22 | 68 | 4.8 | 9.7 | 0.00 | 0.00 | 0.00 | 59 | 1019.5 |
| 20260506205504 | 22 | 45 | 3.2 | 9.7 | 0.00 | 0.00 | 0.00 | 61 | 1019.6 |
| 20260506205005 | 21 | 45 | 4.8 | 11.3 | 0.00 | 0.00 | 0.00 | 60 | 1019.6 |
| 20260506204504 | 22 | 68 | 4.8 | 11.3 | 0.00 | 0.00 | 0.00 | 60 | 1019.7 |
| 20260506204004 | 22 | 45 | 3.2 | 8.0 | 0.00 | 0.00 | 0.00 | 61 | 1019.7 |
| 20260506203504 | 22 | 68 | 3.2 | 12.9 | 0.00 | 0.00 | 0.00 | 61 | 1019.7 |
| 20260506203004 | 22 | 45 | 3.2 | 11.3 | 0.00 | 0.00 | 0.00 | 61 | 1019.8 |
| 20260506202505 | 21 | 45 | 3.2 | 11.3 | 0.00 | 0.00 | 0.00 | 61 | 1019.9 |
| 20260506202004 | 21 | 338 | 1.6 | 6.4 | 0.00 | 0.00 | 0.00 | 61 | 1020.1 |
| 20260506201504 | 21 | 45 | 3.2 | 9.7 | 0.00 | 0.00 | 0.00 | 60 | 1020.2 |
| 20260506201004 | 21 | 338 | 3.2 | 11.3 | 0.00 | 0.00 | 0.00 | 60 | 1020.1 |
| 20260506200504 | 21 | 45 | 3.2 | 11.3 | 0.00 | 0.00 | 0.00 | 61 | 1020.2 |
| 20260506200005 | 21 | 68 | 3.2 | 9.7 | 0.00 | 0.00 | 0.00 | 61 | 1020.4 |
| 20260506195524 | 21 | 45 | 3.2 | 8.0 | 0.00 | 0.00 | 0.00 | 61 | 1020.2 |
| 20260506195004 | 21 | 68 | 4.8 | 9.7 | 0.00 | 0.00 | 0.00 | 61 | 1020.3 |
| 20260506194504 | 21 | 68 | 3.2 | 12.9 | 0.00 | 0.00 | 0.00 | 63 | 1020.3 |
| 20260506194004 | 20 | 45 | 3.2 | 8.0 | 0.00 | 0.00 | 0.00 | 63 | 1020.3 |
| 20260506193504 | 20 | 45 | 3.2 | 8.0 | 0.00 | 0.00 | 0.00 | 63 | 1020.3 |
| 20260506193005 | 20 | 45 | 3.2 | 9.7 | 0.00 | 0.00 | 0.00 | 63 | 1020.4 |
| 20260506192504 | 20 | 68 | 4.8 | 12.9 | 0.00 | 0.00 | 0.00 | 64 | 1020.4 |
| 20260506192024 | 20 | 45 | 3.2 | 12.9 | 0.00 | 0.00 | 0.00 | 65 | 1020.4 |
| 20260506191504 | 20 | 338 | 3.2 | 6.4 | 0.00 | 0.00 | 0.00 | 64 | 1020.4 |
| 20260506191004 | 20 | 45 | 3.2 | 9.7 | 0.00 | 0.00 | 0.00 | 64 | 1020.5 |
| 20260506190504 | 20 | 68 | 3.2 | 8.0 | 0.00 | 0.00 | 0.00 | 65 | 1020.7 |
| 20260506190005 | 20 | 45 | 3.2 | 8.0 | 0.00 | 0.00 | 0.00 | 64 | 1020.6 |
| 20260506185504 | 20 | 45 | 3.2 | 8.0 | 0.00 | 0.00 | 0.00 | 63 | 1020.6 |
| 20260506185024 | 20 | 45 | 3.2 | 9.7 | 0.00 | 0.00 | 0.00 | 63 | 1020.6 |
| 20260506184504 | 20 | 68 | 3.2 | 6.4 | 0.00 | 0.00 | 0.00 | 65 | 1020.7 |
| 20260506184004 | 20 | 45 | 3.2 | 9.7 | 0.00 | 0.00 | 0.00 | 64 | 1020.7 |
| 20260506183504 | 20 | 113 | 3.2 | 8.0 | 0.00 | 0.00 | 0.00 | 65 | 1020.7 |
| 20260506183005 | 19 | 113 | 1.6 | 4.8 | 0.00 | 0.00 | 0.00 | 66 | 1020.8 |
| 20260506182504 | 18 | 203 | 1.6 | 4.8 | 0.00 | 0.00 | 0.00 | 67 | 1020.9 |
| 20260506182024 | 18 | 45 | 3.2 | 8.0 | 0.00 | 0.00 | 0.00 | 67 | 1020.9 |
| 20260506181504 | 18 | 90 | 1.6 | 4.8 | 0.00 | 0.00 | 0.00 | 68 | 1020.8 |
| 20260506181004 | 18 | 338 | 1.6 | 8.0 | 0.00 | 0.00 | 0.00 | 68 | 1020.8 |
| 20260506180504 | 18 | 338 | 1.6 | 8.0 | 0.00 | 0.00 | 0.00 | 69 | 1021.0 |
| 20260506180005 | 17 | 270 | 1.6 | 4.8 | 0.00 | 0.00 | 0.00 | 70 | 1020.9 |
| 20260506175504 | 17 | 225 | 3.2 | 6.4 | 0.00 | 0.00 | 0.00 | 70 | 1021.0 |
| 20260506175004 | 17 | 225 | 3.2 | 6.4 | 0.00 | 0.00 | 0.00 | 71 | 1020.9 |
| 20260506174504 | 17 | 338 | 1.6 | 4.8 | 0.00 | 0.00 | 0.00 | 72 | 1021.1 |
| 20260506174004 | 17 | 338 | 1.6 | 4.8 | 0.00 | 0.00 | 0.00 | 73 | 1021.1 |
| 20260506173544 | 17 | 338 | 1.6 | 4.8 | 0.00 | 0.00 | 0.00 | 73 | 1021.0 |
| 20260506173024 | 16 | 0.0 | 3.2 | 0.00 | 0.00 | 0.00 | 74 | 1021.1 | |
| 20260506172504 | 16 | 315 | 1.6 | 4.8 | 0.00 | 0.00 | 0.00 | 75 | 1021.0 |
| 20260506172004 | 16 | 338 | 1.6 | 4.8 | 0.00 | 0.00 | 0.00 | 75 | 1021.1 |
| 20260506171504 | 16 | 315 | 1.6 | 4.8 | 0.00 | 0.00 | 0.00 | 75 | 1021.1 |
| 20260506171003 | 16 | 45 | 1.6 | 4.8 | 0.00 | 0.00 | 0.00 | 76 | 1021.1 |
| 20260506170503 | 16 | 45 | 3.2 | 4.8 | 0.00 | 0.00 | 0.00 | 75 | 1021.2 |
| 20260506170004 | 16 | 45 | 1.6 | 6.4 | 0.00 | 0.00 | 0.00 | 76 | 1021.1 |
| 20260506165505 | 16 | 0 | 1.6 | 4.8 | 0.00 | 0.00 | 0.00 | 77 | 1021.2 |
| 20260506165004 | 15 | 315 | 1.6 | 3.2 | 0.00 | 0.00 | 0.00 | 77 | 1021.2 |
| 20260506164504 | 15 | 45 | 1.6 | 3.2 | 0.00 | 0.00 | 0.00 | 77 | 1021.2 |
| 20260506164044 | 15 | 315 | 1.6 | 4.8 | 0.00 | 0.00 | 0.00 | 78 | 1021.1 |
| 20260506163503 | 15 | 293 | 1.6 | 4.8 | 0.00 | 0.00 | 0.00 | 78 | 1021.1 |
| 20260506163004 | 15 | 293 | 1.6 | 6.4 | 0.00 | 0.00 | 0.00 | 80 | 1021.2 |
| 20260506162503 | 15 | 338 | 1.6 | 3.2 | 0.00 | 0.00 | 0.00 | 81 | 1021.2 |
| 20260506162004 | 15 | 338 | 1.6 | 3.2 | 0.00 | 0.00 | 0.00 | 81 | 1021.2 |
| 20260506161503 | 15 | 315 | 1.6 | 3.2 | 0.00 | 0.00 | 0.00 | 83 | 1021.2 |
| 20260506161003 | 14 | 315 | 1.6 | 3.2 | 0.00 | 0.00 | 0.00 | 83 | 1021.1 |
| 20260506160503 | 14 | 293 | 1.6 | 3.2 | 0.00 | 0.00 | 0.00 | 84 | 1021.2 |
| 20260506160004 | 14 | 203 | 1.6 | 3.2 | 0.00 | 0.00 | 0.00 | 84 | 1021.2 |
| 20260506155504 | 14 | 293 | 1.6 | 3.2 | 0.00 | 0.00 | 0.00 | 85 | 1021.1 |
| 20260506155003 | 14 | 315 | 1.6 | 3.2 | 0.00 | 0.00 | 0.00 | 85 | 1021.2 |
| 20260506154503 | 13 | 315 | 1.6 | 4.8 | 0.00 | 0.00 | 0.00 | 86 | 1021.1 |
| 20260506154003 | 13 | 0.0 | 3.2 | 0.00 | 0.00 | 0.00 | 86 | 1021.1 | |
| 20260506153503 | 13 | 338 | 1.6 | 3.2 | 0.00 | 0.00 | 0.00 | 87 | 1021.1 |
| 20260506153004 | 13 | 315 | 1.6 | 3.2 | 0.00 | 0.00 | 0.00 | 87 | 1021.1 |
| 20260506152523 | 13 | 0.0 | 1.6 | 0.00 | 0.00 | 0.00 | 87 | 1021.2 | |
| 20260506152023 | 13 | 0.0 | 1.6 | 0.00 | 0.00 | 0.00 | 88 | 1021.2 | |
| 20260506151523 | 13 | 0.0 | 1.6 | 0.00 | 0.00 | 0.00 | 88 | 1021.1 | |
| 20260506151003 | 13 | 0.0 | 1.6 | 0.00 | 0.00 | 0.00 | 88 | 1021.1 | |
| 20260506150503 | 13 | 0.0 | 1.6 | 0.00 | 0.00 | 0.00 | 88 | 1021.1 | |
| 20260506150004 | 13 | 0.0 | 3.2 | 0.00 | 0.00 | 0.00 | 88 | 1021.1 | |
| 20260506145503 | 12 | 315 | 1.6 | 3.2 | 0.00 | 0.00 | 0.00 | 89 | 1021.1 |
| 20260506145003 | 12 | 0.0 | 1.6 | 0.00 | 0.00 | 0.00 | 89 | 1021.0 | |
| 20260506144523 | 12 | 0.0 | 1.6 | 0.00 | 0.00 | 0.00 | 89 | 1021.1 | |
| 20260506144003 | 12 | 0.0 | 3.2 | 0.00 | 0.00 | 0.00 | 89 | 1021.0 | |
| 20260506143503 | 12 | 0.0 | 1.6 | 0.00 | 0.00 | 0.00 | 89 | 1020.9 | |
| 20260506143003 | 12 | 0.0 | 1.6 | 0.00 | 0.00 | 0.00 | 89 | 1021.0 | |
| 20260506142504 | 12 | 0.0 | 1.6 | 0.00 | 0.00 | 0.00 | 89 | 1020.8 | |
| 20260506142003 | 12 | 0.0 | 3.2 | 0.00 | 0.00 | 0.00 | 89 | 1020.9 | |
| 20260506141503 | 12 | 0.0 | 3.2 | 0.00 | 0.00 | 0.00 | 90 | 1020.9 | |
| 20260506141023 | 12 | 0.0 | 1.6 | 0.00 | 0.00 | 0.00 | 90 | 1020.7 | |
| 20260506140503 | 12 | 0.0 | 1.6 | 0.00 | 0.00 | 0.00 | 90 | 1020.8 | |
| 20260506140004 | 12 | 0.0 | 1.6 | 0.00 | 0.00 | 0.00 | 89 | 1020.8 | |
| 20260506135503 | 12 | 0.0 | 3.2 | 0.00 | 0.00 | 0.00 | 89 | 1020.6 | |
| 20260506135004 | 12 | 0.0 | 3.2 | 0.00 | 0.00 | 0.00 | 89 | 1020.5 | |
| 20260506134504 | 12 | 0.0 | 1.6 | 0.00 | 0.00 | 0.00 | 90 | 1020.5 | |
| 20260506134003 | 12 | 0.0 | 1.6 | 0.00 | 0.00 | 0.00 | 90 | 1020.3 | |
| 20260506133503 | 12 | 0.0 | 1.6 | 0.00 | 0.00 | 0.00 | 90 | 1020.3 | |
| 20260506133023 | 11 | 0.0 | 1.6 | 0.00 | 0.00 | 0.00 | 90 | 1020.3 | |
| 20260506132504 | 11 | 0.0 | 3.2 | 0.00 | 0.00 | 0.00 | 89 | 1020.1 | |
| 20260506132003 | 11 | 0.0 | 1.6 | 0.00 | 0.00 | 0.00 | 89 | 1020.0 | |
| 20260506131503 | 11 | 0.0 | 1.6 | 0.00 | 0.00 | 0.00 | 89 | 1020.1 | |
| 20260506131004 | 11 | 0.0 | 1.6 | 0.00 | 0.00 | 0.00 | 89 | 1020.1 | |
| 20260506130503 | 11 | 0.0 | 1.6 | 0.00 | 0.00 | 0.00 | 89 | 1020.0 | |
| 20260506130004 | 11 | 0.0 | 1.6 | 0.00 | 0.00 | 0.00 | 89 | 1019.9 | |
| 20260506125503 | 11 | 0.0 | 1.6 | 0.00 | 0.00 | 0.00 | 88 | 1019.9 | |
| 20260506125003 | 11 | 0.0 | 1.6 | 0.00 | 0.00 | 0.00 | 88 | 1019.8 | |
| 20260506124503 | 11 | 0.0 | 1.6 | 0.00 | 0.00 | 0.00 | 88 | 1019.8 | |
| 20260506124003 | 11 | 0.0 | 1.6 | 0.00 | 0.00 | 0.00 | 88 | 1019.9 | |
| 20260506123503 | 11 | 0.0 | 1.6 | 0.00 | 0.00 | 0.00 | 88 | 1019.8 | |
| 20260506123003 | 11 | 0.0 | 0.0 | 0.00 | 0.00 | 0.00 | 87 | 1019.9 | |
| 20260506122503 | 11 | 0.0 | 1.6 | 0.00 | 0.00 | 0.00 | 87 | 1019.9 | |
| 20260506122003 | 11 | 0.0 | 1.6 | 0.00 | 0.00 | 0.00 | 86 | 1019.8 | |
| 20260506121503 | 11 | 0.0 | 1.6 | 0.00 | 0.00 | 0.00 | 86 | 1019.9 | |
| 20260506121003 | 11 | 0.0 | 1.6 | 0.00 | 0.00 | 0.00 | 86 | 1019.8 | |
| 20260506120503 | 11 | 0.0 | 1.6 | 0.00 | 0.00 | 0.00 | 86 | 1019.7 | |
| 20260506120004 | 11 | 0.0 | 1.6 | 0.00 | 0.00 | 0.00 | 86 | 1019.7 | |
| 20260506115503 | 11 | 0.0 | 1.6 | 0.00 | 0.00 | 0.00 | 85 | 1019.7 | |
| 20260506115003 | 11 | 0.0 | 1.6 | 0.00 | 0.00 | 0.00 | 85 | 1019.7 | |
| 20260506114503 | 11 | 0.0 | 1.6 | 0.00 | 0.00 | 0.00 | 85 | 1019.6 | |
| 20260506114003 | 11 | 0.0 | 1.6 | 0.00 | 0.00 | 0.00 | 84 | 1019.6 | |
| 20260506113503 | 11 | 0.0 | 1.6 | 0.00 | 0.00 | 0.00 | 84 | 1019.5 | |
| 20260506113003 | 11 | 0.0 | 1.6 | 0.00 | 0.00 | 0.00 | 84 | 1019.5 | |
| 20260506112503 | 11 | 0.0 | 1.6 | 0.00 | 0.00 | 0.00 | 84 | 1019.4 | |
| 20260506112023 | 11 | 0.0 | 1.6 | 0.00 | 0.00 | 0.00 | 83 | 1019.4 | |
| 20260506111503 | 11 | 0.0 | 1.6 | 0.00 | 0.00 | 0.00 | 83 | 1019.5 | |
| 20260506111003 | 12 | 0.0 | 1.6 | 0.00 | 0.00 | 0.00 | 83 | 1019.3 | |
| 20260506110503 | 12 | 0.0 | 1.6 | 0.00 | 0.00 | 0.00 | 82 | 1019.4 | |
| 20260506110003 | 12 | 0.0 | 1.6 | 0.00 | 0.00 | 0.00 | 81 | 1019.4 | |
| 20260506105503 | 12 | 0.0 | 1.6 | 0.00 | 0.00 | 0.00 | 81 | 1019.3 | |
| 20260506105002 | 12 | 0.0 | 1.6 | 0.00 | 0.00 | 0.00 | 81 | 1019.3 | |
| 20260506104504 | 12 | 0.0 | 1.6 | 0.00 | 0.00 | 0.00 | 81 | 1019.3 | |
| 20260506104003 | 12 | 0.0 | 1.6 | 0.00 | 0.00 | 0.00 | 81 | 1019.3 | |
| 20260506103502 | 12 | 0.0 | 1.6 | 0.00 | 0.00 | 0.00 | 80 | 1019.2 | |
| 20260506103005 | 12 | 0.0 | 1.6 | 0.00 | 0.00 | 0.00 | 80 | 1019.3 | |
| 20260506102505 | 13 | 0.0 | 1.6 | 0.00 | 0.00 | 0.00 | 80 | 1019.3 | |
| 20260506102005 | 13 | 0.0 | 1.6 | 0.00 | 0.00 | 0.00 | 80 | 1019.4 | |
| 20260506101504 | 13 | 0.0 | 1.6 | 0.00 | 0.00 | 0.00 | 80 | 1019.2 | |
| 20260506101005 | 13 | 0.0 | 1.6 | 0.00 | 0.00 | 0.00 | 80 | 1019.3 | |
| 20260506100505 | 13 | 0.0 | 1.6 | 0.00 | 0.00 | 0.00 | 80 | 1019.4 | |
| 20260506100005 | 13 | 0.0 | 1.6 | 0.00 | 0.00 | 0.00 | 81 | 1019.2 | |
| 20260506095505 | 13 | 0.0 | 1.6 | 0.00 | 0.00 | 0.00 | 81 | 1019.2 | |
| 20260506095004 | 13 | 0.0 | 3.2 | 0.00 | 0.00 | 0.00 | 81 | 1019.2 | |
| 20260506094505 | 13 | 0.0 | 1.6 | 0.00 | 0.00 | 0.00 | 81 | 1019.2 | |
| 20260506094005 | 13 | 0.0 | 1.6 | 0.00 | 0.00 | 0.00 | 81 | 1019.3 | |
| 20260506093505 | 13 | 0 | 1.6 | 3.2 | 0.00 | 0.00 | 0.00 | 81 | 1019.2 |
| 20260506093005 | 13 | 0.0 | 3.2 | 0.00 | 0.00 | 0.00 | 81 | 1019.3 | |
| 20260506092505 | 13 | 0.0 | 1.6 | 0.00 | 0.00 | 0.00 | 81 | 1019.3 | |
| 20260506092004 | 14 | 0 | 1.6 | 3.2 | 0.00 | 0.00 | 0.00 | 81 | 1019.4 |
| 20260506091505 | 14 | 338 | 1.6 | 4.8 | 0.00 | 0.00 | 0.00 | 81 | 1019.3 |
| 20260506091025 | 14 | 338 | 1.6 | 4.8 | 0.00 | 0.00 | 0.00 | 81 | 1019.3 |
| 20260506090545 | 14 | 338 | 1.6 | 4.8 | 0.00 | 0.00 | 0.00 | 82 | 1019.3 |
| 20260506090005 | 14 | 338 | 1.6 | 4.8 | 0.00 | 0.00 | 0.00 | 82 | 1019.2 |
| 20260506085505 | 14 | 338 | 1.6 | 3.2 | 0.00 | 0.00 | 0.00 | 82 | 1019.2 |
| 20260506085004 | 14 | 338 | 1.6 | 3.2 | 0.00 | 0.00 | 0.00 | 81 | 1019.2 |
| 20260506084525 | 14 | 0.0 | 3.2 | 0.00 | 0.00 | 0.00 | 81 | 1019.4 | |
| 20260506084004 | 14 | 315 | 1.6 | 3.2 | 0.00 | 0.00 | 0.00 | 81 | 1019.3 |
| 20260506083504 | 14 | 338 | 1.6 | 3.2 | 0.00 | 0.00 | 0.00 | 81 | 1019.3 |
| 20260506083004 | 14 | 338 | 1.6 | 3.2 | 0.00 | 0.00 | 0.00 | 81 | 1019.4 |
| 20260506082525 | 14 | 315 | 1.6 | 3.2 | 0.00 | 0.00 | 0.00 | 81 | 1019.3 |
| 20260506082009 | 14 | 338 | 1.6 | 3.2 | 0.00 | 0.00 | 0.00 | 81 | 1019.4 |
| 20260506081504 | 14 | 338 | 1.6 | 3.2 | 0.00 | 0.00 | 0.00 | 81 | 1019.4 |
| 20260506081005 | 14 | 45 | 1.6 | 4.8 | 0.00 | 0.00 | 0.00 | 81 | 1019.4 |
| 20260506080504 | 14 | 338 | 1.6 | 3.2 | 0.00 | 0.00 | 0.00 | 81 | 1019.3 |
| 20260506073504 | 14 | 45 | 1.6 | 3.2 | 0.00 | 0.00 | 0.00 | 80 | 1019.2 |
| 20260506073004 | 14 | 45 | 1.6 | 3.2 | 0.00 | 0.00 | 0.00 | 80 | 1019.1 |
| 20260506072503 | 14 | 338 | 1.6 | 4.8 | 0.00 | 0.00 | 0.00 | 80 | 1019.2 |
| 20260506072003 | 14 | 338 | 1.6 | 4.8 | 0.00 | 0.00 | 0.00 | 80 | 1019.1 |
| 20260506071504 | 14 | 45 | 1.6 | 4.8 | 0.00 | 0.00 | 0.00 | 80 | 1019.1 |
| 20260506071003 | 14 | 338 | 1.6 | 3.2 | 0.00 | 0.00 | 0.00 | 80 | 1019.1 |
| 20260506070503 | 14 | 338 | 1.6 | 3.2 | 0.00 | 0.00 | 0.00 | 80 | 1018.9 |
| 20260506062503 | 14 | 338 | 1.6 | 3.2 | 0.00 | 0.00 | 0.00 | 79 | 1018.9 |
| 20260506062003 | 14 | 315 | 1.6 | 3.2 | 0.00 | 0.00 | 0.00 | 79 | 1018.8 |
| 20260506061503 | 14 | 0 | 1.6 | 4.8 | 0.00 | 0.00 | 0.00 | 79 | 1018.8 |
| 20260506061004 | 14 | 0 | 1.6 | 4.8 | 0.00 | 0.00 | 0.00 | 79 | 1018.7 |
| 20260506060503 | 14 | 0 | 1.6 | 4.8 | 0.00 | 0.00 | 0.00 | 78 | 1018.8 |
| 20260506051003 | 15 | 0.0 | 1.6 | 0.00 | 0.00 | 0.00 | 76 | 1018.2 | |
| 20260506050503 | 15 | 225 | 1.6 | 3.2 | 0.00 | 0.00 | 0.00 | 76 | 1018.1 |
| 20260506045003 | 15 | 225 | 1.6 | 4.8 | 0.00 | 0.00 | 0.00 | 75 | 1018.0 |
| 20260506044503 | 15 | 0.0 | 3.2 | 0.00 | 0.00 | 0.00 | 75 | 1017.9 | |
| 20260506044003 | 15 | 0.0 | 3.2 | 0.00 | 0.00 | 0.00 | 75 | 1017.9 | |
| 20260506043503 | 15 | 225 | 1.6 | 3.2 | 0.00 | 0.00 | 0.00 | 75 | 1018.0 |
| 20260506043003 | 15 | 0.0 | 3.2 | 0.00 | 0.00 | 0.00 | 75 | 1017.9 | |
| 20260506042503 | 15 | 0.0 | 3.2 | 0.00 | 0.00 | 0.00 | 75 | 1017.9 | |
| 20260506042003 | 15 | 293 | 1.6 | 4.8 | 0.00 | 0.00 | 0.00 | 75 | 1017.8 |
| 20260506041503 | 15 | 0.0 | 3.2 | 0.00 | 0.00 | 0.00 | 75 | 1017.8 | |
| 20260506041003 | 15 | 315 | 1.6 | 4.8 | 0.00 | 0.00 | 0.00 | 75 | 1017.7 |
| 20260506040503 | 15 | 293 | 1.6 | 6.4 | 0.00 | 0.00 | 0.00 | 75 | 1017.5 |
| 20260506040003 | 15 | 270 | 1.6 | 4.8 | 0.00 | 0.00 | 0.00 | 75 | 1017.5 |
| 20260506035502 | 15 | 293 | 1.6 | 3.2 | 0.00 | 0.00 | 0.00 | 75 | 1017.4 |
| 20260506035003 | 15 | 270 | 1.6 | 4.8 | 0.00 | 0.00 | 0.00 | 75 | 1017.3 |
| 20260506034503 | 15 | 270 | 1.6 | 4.8 | 0.00 | 0.00 | 0.00 | 74 | 1017.3 |
| 20260506034023 | 15 | 338 | 1.6 | 3.2 | 0.00 | 0.00 | 0.00 | 74 | 1017.2 |
| 20260506033523 | 15 | 315 | 1.6 | 4.8 | 0.00 | 0.00 | 0.00 | 74 | 1017.1 |
| 20260506033003 | 15 | 225 | 1.6 | 3.2 | 0.00 | 0.00 | 0.00 | 74 | 1017.0 |
| 20260506032502 | 15 | 225 | 1.6 | 4.8 | 0.00 | 0.00 | 0.00 | 74 | 1017.1 |
| 20260506032005 | 15 | 270 | 1.6 | 6.4 | 0.00 | 0.00 | 0.00 | 73 | 1017.0 |
| 20260506031525 | 15 | 203 | 1.6 | 4.8 | 0.00 | 0.00 | 0.00 | 73 | 1016.9 |
| 20260506031005 | 15 | 270 | 1.6 | 4.8 | 0.00 | 0.00 | 0.00 | 73 | 1016.9 |
| 20260506030505 | 15 | 225 | 1.6 | 6.4 | 0.00 | 0.00 | 0.00 | 72 | 1016.9 |
| 20260506030005 | 15 | 225 | 1.6 | 4.8 | 0.00 | 0.00 | 0.00 | 72 | 1016.8 |
| 20260506025506 | 15 | 0.0 | 3.2 | 0.00 | 0.00 | 0.00 | 72 | 1016.8 | |
| 20260506025005 | 15 | 0.0 | 3.2 | 0.00 | 0.00 | 0.00 | 72 | 1016.7 | |
| 20260506024505 | 15 | 225 | 1.6 | 4.8 | 0.00 | 0.00 | 0.00 | 72 | 1016.4 |
| 20260506024005 | 15 | 225 | 3.2 | 6.4 | 0.00 | 0.00 | 0.00 | 72 | 1016.5 |
| 20260506023504 | 16 | 248 | 1.6 | 6.4 | 0.00 | 0.00 | 0.00 | 72 | 1016.4 |
| 20260506023005 | 16 | 225 | 1.6 | 8.0 | 0.00 | 0.00 | 0.00 | 71 | 1016.5 |
| 20260506022505 | 16 | 225 | 1.6 | 8.0 | 0.00 | 0.00 | 0.00 | 71 | 1016.4 |
| 20260506022005 | 16 | 225 | 3.2 | 9.7 | 0.00 | 0.00 | 0.00 | 71 | 1016.4 |
| 20260506021505 | 16 | 225 | 1.6 | 6.4 | 0.00 | 0.00 | 0.00 | 71 | 1016.3 |
| 20260506021004 | 16 | 225 | 3.2 | 8.0 | 0.00 | 0.00 | 0.00 | 71 | 1016.2 |
| 20260506020505 | 16 | 225 | 1.6 | 6.4 | 0.00 | 0.00 | 0.00 | 70 | 1016.2 |
| 20260506020005 | 16 | 270 | 1.6 | 6.4 | 0.00 | 0.00 | 0.00 | 70 | 1016.4 |
| 20260506015505 | 16 | 293 | 1.6 | 6.4 | 0.00 | 0.00 | 0.00 | 70 | 1016.3 |
| 20260506015005 | 16 | 248 | 3.2 | 6.4 | 0.00 | 0.00 | 0.00 | 70 | 1016.4 |
| 20260506014505 | 16 | 203 | 1.6 | 4.8 | 0.00 | 0.00 | 0.00 | 70 | 1016.3 |
| 20260506014004 | 16 | 225 | 1.6 | 4.8 | 0.00 | 0.00 | 0.00 | 70 | 1016.4 |
| 20260506013505 | 16 | 225 | 1.6 | 3.2 | 0.00 | 0.00 | 0.00 | 70 | 1016.4 |
| 20260506013004 | 16 | 293 | 1.6 | 3.2 | 0.00 | 0.00 | 0.00 | 70 | 1016.3 |
| 20260506012505 | 16 | 225 | 3.2 | 8.0 | 0.00 | 0.00 | 0.00 | 69 | 1016.4 |
| 20260506012045 | 16 | 248 | 1.6 | 6.4 | 0.00 | 0.00 | 0.00 | 69 | 1016.3 |
| 20260506011504 | 16 | 315 | 1.6 | 6.4 | 0.00 | 0.00 | 0.00 | 69 | 1016.3 |
| 20260506011005 | 16 | 270 | 1.6 | 4.8 | 0.00 | 0.00 | 0.00 | 69 | 1016.3 |
| 20260506010505 | 16 | 225 | 3.2 | 9.7 | 0.00 | 0.00 | 0.00 | 69 | 1016.4 |
| 20260506010004 | 16 | 225 | 3.2 | 8.0 | 0.00 | 0.00 | 0.00 | 68 | 1016.3 |
| 20260506005505 | 16 | 315 | 3.2 | 6.4 | 0.00 | 0.00 | 0.00 | 69 | 1016.3 |
| 20260506005025 | 16 | 225 | 1.6 | 6.4 | 0.00 | 0.00 | 0.00 | 69 | 1016.2 |
| 20260506004505 | 16 | 225 | 3.2 | 6.4 | 0.00 | 0.00 | 0.00 | 69 | 1016.3 |
| 20260506004004 | 16 | 225 | 1.6 | 9.7 | 0.00 | 0.00 | 0.00 | 69 | 1016.2 |
| 20260506003524 | 16 | 225 | 3.2 | 8.0 | 0.00 | 0.00 | 0.00 | 69 | 1016.1 |
| 20260506003005 | 16 | 270 | 3.2 | 9.7 | 0.00 | 0.00 | 0.00 | 69 | 1016.1 |